Change the Weather History Date:

Saturday, November 3, 2012

  Actual Average Record
Temperature  
Mean Temperature 68 °F -  
Max Temperature 78 °F 74 °F 84 °F (2001)
Min Temperature 59 °F 55 °F 41 °F (2014)
Cooling Degree Days 4    
Growing Degree Days 18 (Base 50)    
Moisture  
Dew Point 67 °F    
Average Humidity 97    
Maximum Humidity 100    
Minimum Humidity 74    
Precipitation  
Precipitation 0.01 in - - ()
Sea Level Pressure  
Sea Level Pressure 30.09 in    
Wind  
Wind Speed 4 mph (West)    
Max Wind Speed 12 mph    
Max Gust Speed -    
Visibility 5 miles    
Events Fog    
Averages and records for this station are not official NWS values.
T = Trace of Precipitation, MM = Missing Value Source: NWS Daily Summary

Daily Weather History Graph

Daily Weather History Graph

Search for Another Location

Airport or City:

Trip Planner

Search our weather history database for the weather conditions in past years. The results will help you decide how hot, cold, wet, or windy it might be!

Date:

Astronomy

Nov. 03, 2012 Rise Set
Actual Time 6:58 AM CDT 5:53 PM CDT
Civil Twilight 6:33 AM CDT 6:17 PM CDT
Nautical Twilight 6:04 AM CDT 6:46 PM CDT
Astronomical Twilight 5:36 AM CDT 7:14 PM CDT
Moon 9:40 PM CDT (11/3) 10:54 AM CDT (11/3)
Length of Visible Light 11h 44m
Length of Day
10h 54m
Waning Gibbous, 80% of the Moon is Illuminated
Nov 3
Waning Gibbous
Nov 6
Last Quarter
Nov 13
New
Nov 20
First Quarter
Nov 28
Full

Hourly Weather History & Observations

Time (CDT) Temp. Dew Point Humidity Pressure Visibility Wind Dir Wind Speed Gust Speed Precip Events Conditions
12:29 AM 66.2 °F 66.2 °F 100% 30.07 in 8.0 mi Calm Calm - N/A   Clear
12:51 AM 66.2 °F 66.2 °F 100% 30.06 in 6.0 mi WNW 3.5 mph - N/A   Clear
12:55 AM 65.7 °F 65.7 °F 100% 30.06 in 6.0 mi West 4.6 mph - N/A   Clear
1:05 AM 66.2 °F 66.2 °F 100% 30.06 in 6.0 mi West 3.5 mph - N/A   Clear
1:21 AM 66.2 °F 66.2 °F 100% 30.06 in 4.0 mi WNW 3.5 mph - N/A   Clear
1:27 AM 66.2 °F 66.2 °F 100% 30.06 in 3.0 mi NW 4.6 mph - N/A   Clear
1:41 AM 66.2 °F 66.2 °F 100% 30.06 in 3.0 mi WNW 4.6 mph - N/A   Clear
1:44 AM 66.2 °F 66.2 °F 100% 30.06 in 2.5 mi NW 4.6 mph - N/A   Clear
1:52 AM 66.2 °F 66.2 °F 100% 30.06 in 1.8 mi NW 4.6 mph - N/A   Clear
1:55 AM 65.7 °F 65.7 °F 100% 30.06 in 1.5 mi WNW 4.6 mph - N/A   Clear
1:57 AM 66.2 °F 66.2 °F 100% 30.06 in 1.2 mi WNW 4.6 mph - N/A   Clear
2:04 AM 66.2 °F 66.2 °F 100% 30.06 in 0.8 mi WNW 4.6 mph - N/A   Clear
2:06 AM 66.2 °F 66.2 °F 100% 30.06 in 0.8 mi WNW 3.5 mph - N/A   Clear
2:10 AM 66.2 °F 66.2 °F 100% 30.06 in 0.5 mi WNW 4.6 mph - N/A Fog Fog
2:27 AM 66.2 °F 66.2 °F 100% 30.06 in 0.8 mi WNW 3.5 mph - N/A   Clear
2:38 AM 66.2 °F 66.2 °F 100% 30.06 in 0.8 mi WNW 3.5 mph - N/A   Clear
2:40 AM 66.2 °F 66.2 °F 100% 30.06 in 0.5 mi WNW 3.5 mph - N/A Fog Fog
2:43 AM 66.2 °F 66.2 °F 100% 30.06 in 0.5 mi NW 3.5 mph - N/A Fog Fog
2:50 AM 66.2 °F 66.2 °F 100% 30.06 in 0.2 mi NW 3.5 mph - N/A Fog Fog
2:55 AM 65.1 °F 65.1 °F 100% 30.06 in 0.2 mi WNW 4.6 mph - N/A Fog Fog
3:55 AM 64.9 °F 64.8 °F 99% 30.07 in 0.2 mi WNW 4.6 mph - N/A Fog Fog
4:13 AM 64.4 °F 64.4 °F 100% 30.07 in 0.5 mi WNW 4.6 mph - N/A Fog Fog
4:29 AM 64.4 °F 64.4 °F 100% 30.07 in 0.5 mi WNW 4.6 mph - N/A Fog Fog
4:33 AM 64.4 °F 64.4 °F 100% 30.07 in 0.8 mi WNW 5.8 mph - N/A   Clear
4:40 AM 64.4 °F 64.4 °F 100% 30.08 in 0.8 mi WNW 5.8 mph - N/A   Clear
4:42 AM 64.4 °F 64.4 °F 100% 30.08 in 1.0 mi WNW 4.6 mph - N/A   Clear
4:48 AM 64.4 °F 64.4 °F 100% 30.08 in 0.8 mi WNW 4.6 mph - N/A   Clear
4:53 AM 64.4 °F 64.4 °F 100% 30.08 in 0.5 mi WNW 4.6 mph - N/A Fog Fog
5:24 AM 64.4 °F 64.4 °F 100% 30.09 in 0.2 mi WNW 3.5 mph - N/A Fog Fog
5:55 AM 64.9 °F 64.9 °F 100% 30.10 in 0.2 mi NW 4.6 mph - N/A Fog Fog
6:37 AM 60.8 °F 60.8 °F 100% 30.11 in 0.2 mi Calm Calm - N/A Fog Fog
6:55 AM 59.9 °F 59.9 °F 100% 30.11 in 0.2 mi Calm Calm - N/A Fog Fog
7:46 AM 60.8 °F 60.8 °F 100% 30.13 in 0.2 mi Calm Calm - N/A Fog Fog
7:49 AM 60.8 °F 60.8 °F 100% 30.13 in 0.2 mi Calm Calm - N/A Fog Fog
7:50 AM 60.8 °F 60.8 °F 100% 30.13 in 0.5 mi Calm Calm - N/A Fog Fog
7:55 AM 62.1 °F 61.9 °F 99% 30.13 in 1.2 mi Calm Calm - N/A   Clear
7:59 AM 62.6 °F 62.6 °F 100% 30.13 in 3.0 mi Calm Calm - N/A   Clear
8:02 AM 62.6 °F 62.6 °F 100% 30.13 in 5.0 mi Calm Calm - N/A   Clear
8:37 AM 66.2 °F 66.2 °F 100% 30.14 in 9.0 mi Calm Calm - N/A   Partly Cloudy
8:55 AM 67.1 °F 67.1 °F 100% 30.14 in 10.0 mi Calm Calm - 0.01 in   Scattered Clouds
9:55 AM 71.4 °F 71.2 °F 99% 30.14 in 10.0 mi WNW 4.6 mph - N/A   Clear
10:13 AM 73.4 °F 69.8 °F 88% 30.14 in 10.0 mi Variable 3.5 mph - N/A   Light Drizzle
10:55 AM 77.5 °F 70.5 °F 79% 30.14 in 10.0 mi WNW 4.6 mph - 0.00 in   Light Drizzle
11:29 AM 78.8 °F 69.8 °F 74% 30.13 in 10.0 mi Variable 4.6 mph - N/A   Clear
11:55 AM 78.3 °F 72.5 °F 82% 30.12 in 10.0 mi WSW 8.1 mph - 0.00 in   Clear
12:19 PM 77.0 °F 71.6 °F 83% 30.12 in 10.0 mi WSW 6.9 mph - N/A   Light Drizzle
12:55 PM 77.7 °F 72.7 °F 84% 30.11 in 10.0 mi WSW 9.2 mph - 0.00 in   Light Drizzle
1:55 PM 76.6 °F 72.3 °F 86% 30.09 in 10.0 mi WSW 9.2 mph - 0.00 in   Light Drizzle
2:55 PM 76.5 °F 71.8 °F 85% 30.08 in 10.0 mi SW 11.5 mph - 0.00 in   Light Drizzle
3:55 PM 75.6 °F 71.4 °F 87% 30.07 in 10.0 mi SW 10.4 mph - 0.00 in   Light Drizzle
4:55 PM 74.1 °F 70.9 °F 90% 30.06 in 10.0 mi WSW 8.1 mph - 0.00 in   Light Drizzle
5:55 PM 71.6 °F 71.6 °F 100% 30.07 in 10.0 mi WSW 5.8 mph - 0.00 in   Light Drizzle
6:06 PM 71.6 °F 71.6 °F 100% 30.07 in 10.0 mi WSW 6.9 mph - N/A   Clear
6:55 PM 70.5 °F 70.5 °F 100% 30.08 in 10.0 mi WSW 5.8 mph - 0.00 in   Clear
7:55 PM 70.3 °F 70.3 °F 100% 30.09 in 10.0 mi WSW 6.9 mph - N/A   Clear
8:55 PM 69.6 °F 69.6 °F 100% 30.09 in 10.0 mi SW 4.6 mph - N/A   Clear
9:55 PM 68.9 °F 68.9 °F 100% 30.10 in 10.0 mi WSW 5.8 mph - N/A   Clear
10:55 PM 69.1 °F 69.1 °F 100% 30.10 in 10.0 mi WSW 4.6 mph - N/A   Clear
11:55 PM 68.2 °F 68.2 °F 100% 30.10 in 10.0 mi WSW 3.5 mph - N/A   Clear